TimeEST,TemperatureF,Dew PointF,Humidity,Sea Level PressureIn,VisibilityMPH,Wind Direction,Wind SpeedMPH,Gust SpeedMPH,PrecipitationIn,Events,Conditions,WindDirDegrees,DateUTC
12:41 AM,8.6,5.0,85,30.00,9.0,Calm,Calm,-,N/A,,Scattered Clouds,0,2012-12-29 05:41:00
12:49 AM,10.4,5.0,79,30.00,8.0,Calm,Calm,-,N/A,,Mostly Cloudy,0,2012-12-29 05:49:00
12:53 AM,10.9,6.1,81,30.05,9.0,Calm,Calm,-,N/A,,Scattered Clouds,0,2012-12-29 05:53:00
1:53 AM,9.0,3.9,80,30.05,10.0,Calm,Calm,-,N/A,,Clear,0,2012-12-29 06:53:00
2:28 AM,6.8,1.4,79,30.01,10.0,Calm,Calm,-,N/A,,Scattered Clouds,0,2012-12-29 07:28:00
2:37 AM,6.8,3.2,85,30.00,10.0,Calm,Calm,-,N/A,,Mostly Cloudy,0,2012-12-29 07:37:00
2:53 AM,5.0,-0.0,80,30.06,10.0,Calm,Calm,-,N/A,,Mostly Cloudy,0,2012-12-29 07:53:00
3:07 AM,6.8,1.4,79,30.01,10.0,Calm,Calm,-,N/A,,Scattered Clouds,0,2012-12-29 08:07:00
3:53 AM,3.9,-0.0,84,30.05,10.0,Calm,Calm,-,N/A,,Clear,0,2012-12-29 08:53:00
4:10 AM,8.6,1.4,73,29.99,10.0,Calm,Calm,-,N/A,,Partly Cloudy,0,2012-12-29 09:10:00
4:53 AM,10.0,3.9,76,30.04,8.0,Calm,Calm,-,N/A,,Clear,0,2012-12-29 09:53:00
5:17 AM,8.6,3.2,79,29.99,10.0,Calm,Calm,-,N/A,,Partly Cloudy,0,2012-12-29 10:17:00
5:53 AM,12.0,7.0,80,30.03,6.0,NNE,4.6,-,N/A,,Haze,30,2012-12-29 10:53:00
7:53 AM,14.0,10.0,84,30.01,10.0,Calm,Calm,-,N/A,,Overcast,0,2012-12-29 12:53:00
8:53 AM,15.1,10.9,84,30.02,10.0,Calm,Calm,-,N/A,,Overcast,0,2012-12-29 13:53:00
9:53 AM,17.1,12.9,84,30.01,3.0,Calm,Calm,-,0.00,Snow,Light Snow,0,2012-12-29 14:53:00
10:04 AM,17.6,12.2,79,29.95,1.5,Calm,Calm,-,0.00,Snow,Light Snow,0,2012-12-29 15:04:00
10:53 AM,18.0,12.9,81,29.97,0.8,North,5.8,-,0.01,Snow,Light Snow,10,2012-12-29 15:53:00
11:06 AM,17.6,14.0,86,29.89,0.5,North,3.5,-,0.01,Fog-Snow,Snow,350,2012-12-29 16:06:00
11:15 AM,17.6,15.8,93,29.89,1.0,NW,3.5,-,0.01,Snow,Light Snow,320,2012-12-29 16:15:00
11:32 AM,17.6,15.8,93,29.87,0.8,NNW,3.5,-,0.02,Snow,Light Snow,330,2012-12-29 16:32:00
11:44 AM,19.4,15.8,86,29.86,0.5,NNW,3.5,-,0.03,Fog-Snow,Snow,340,2012-12-29 16:44:00
11:53 AM,19.0,15.1,85,29.90,0.5,NNW,3.5,-,0.04,Fog-Snow,Snow,330,2012-12-29 16:53:00
11:55 AM,19.4,15.8,86,29.85,0.2,NNW,3.5,-,0.00,Fog-Snow,Heavy Snow,330,2012-12-29 16:55:00
12:16 PM,19.4,15.8,86,29.84,0.5,Calm,Calm,-,0.02,Fog-Snow,Snow,0,2012-12-29 17:16:00
12:24 PM,19.4,15.8,86,29.84,0.2,Calm,Calm,-,0.03,Fog-Snow,Heavy Snow,0,2012-12-29 17:24:00
12:53 PM,19.9,16.0,85,29.85,0.5,Calm,Calm,-,0.06,Fog-Snow,Snow,0,2012-12-29 17:53:00
1:03 PM,19.4,15.8,86,29.80,0.5,Calm,Calm,-,0.01,Fog-Snow,Snow,0,2012-12-29 18:03:00
1:09 PM,19.4,15.8,86,29.80,1.2,Calm,Calm,-,0.01,Snow,Light Snow,0,2012-12-29 18:09:00
1:23 PM,19.4,15.8,86,29.79,2.0,Calm,Calm,-,0.02,Snow,Light Snow,0,2012-12-29 18:23:00
1:32 PM,19.4,15.8,86,29.78,1.2,Calm,Calm,-,0.02,Snow,Light Snow,0,2012-12-29 18:32:00
1:53 PM,19.9,16.0,85,29.81,0.5,Calm,Calm,-,0.03,Fog-Snow,Snow,0,2012-12-29 18:53:00
1:57 PM,19.4,15.8,86,29.76,0.2,Calm,Calm,-,0.00,Fog-Snow,Snow,0,2012-12-29 18:57:00
2:10 PM,21.2,17.6,86,29.75,0.5,Calm,Calm,-,0.01,Fog-Snow,Snow,0,2012-12-29 19:10:00
2:16 PM,19.4,17.6,93,29.74,0.2,Calm,Calm,-,0.02,Fog-Snow,Snow,0,2012-12-29 19:16:00
2:19 PM,21.2,17.6,86,29.74,0.5,Calm,Calm,-,0.02,Fog-Snow,Snow,0,2012-12-29 19:19:00
2:29 PM,21.2,17.6,86,29.74,1.0,NNW,3.5,-,0.02,Snow,Light Snow,340,2012-12-29 19:29:00
2:53 PM,21.0,17.1,85,29.79,1.5,Calm,Calm,-,0.02,Snow,Light Snow,0,2012-12-29 19:53:00
3:06 PM,21.2,17.6,86,29.73,1.0,Calm,Calm,-,0.01,Snow,Light Snow,0,2012-12-29 20:06:00
3:27 PM,21.2,17.6,86,29.72,0.5,Calm,Calm,-,0.02,Fog-Snow,Snow,0,2012-12-29 20:27:00
3:53 PM,21.0,17.1,85,29.76,0.8,North,3.5,-,0.04,Snow,Light Snow,350,2012-12-29 20:53:00
4:32 PM,21.2,17.6,86,29.69,1.2,North,3.5,-,0.03,Snow,Light Snow,350,2012-12-29 21:32:00
4:42 PM,21.2,17.6,86,29.68,1.2,North,3.5,-,0.03,Snow,Light Snow,350,2012-12-29 21:42:00
4:53 PM,21.9,18.0,85,29.72,1.2,North,3.5,-,0.04,Snow,Light Snow,10,2012-12-29 21:53:00
5:33 PM,21.2,17.6,86,29.67,2.0,Calm,Calm,-,0.01,Snow,Light Snow,0,2012-12-29 22:33:00
5:46 PM,21.2,17.6,86,29.65,4.0,Calm,Calm,-,0.01,Snow,Light Snow,0,2012-12-29 22:46:00
6:24 PM,21.2,17.6,86,29.61,2.5,North,3.5,-,0.00,Snow,Light Snow,360,2012-12-29 23:24:00
6:31 PM,21.2,17.6,86,29.61,3.0,North,4.6,-,0.00,Snow,Light Snow,360,2012-12-29 23:31:00
6:40 PM,21.2,19.4,93,29.61,2.5,Calm,Calm,-,0.00,Snow,Light Snow,0,2012-12-29 23:40:00
6:53 PM,21.9,18.0,85,29.66,2.5,Calm,Calm,-,0.00,Snow,Light Snow,0,2012-12-29 23:53:00
7:13 PM,21.2,17.6,86,29.63,3.0,Calm,Calm,-,0.00,Snow,Light Snow,0,2012-12-30 00:13:00
7:44 PM,21.2,19.4,93,29.60,1.8,NNW,4.6,-,0.01,Snow,Light Snow,340,2012-12-30 00:44:00
7:53 PM,21.9,19.0,89,29.63,1.2,NNW,3.5,-,0.01,Snow,Light Snow,330,2012-12-30 00:53:00
8:12 PM,21.2,19.4,93,29.58,2.5,Calm,Calm,-,0.00,Snow,Light Snow,0,2012-12-30 01:12:00
8:53 PM,21.9,19.0,89,29.60,2.5,NNW,3.5,-,0.01,Snow,Light Snow,340,2012-12-30 01:53:00
9:03 PM,23.0,19.4,86,29.55,3.0,Calm,Calm,-,0.00,Snow,Light Snow,0,2012-12-30 02:03:00
9:20 PM,23.0,19.4,86,29.56,4.0,NNW,3.5,-,0.00,Snow,Light Snow,330,2012-12-30 02:20:00
9:39 PM,23.0,19.4,86,29.54,2.5,North,3.5,-,0.00,Snow,Light Snow,350,2012-12-30 02:39:00
9:53 PM,23.0,19.0,85,29.57,2.5,North,3.5,-,0.00,Snow,Light Snow,350,2012-12-30 02:53:00
10:25 PM,23.0,19.4,86,29.55,5.0,Calm,Calm,-,0.00,Snow,Light Snow,0,2012-12-30 03:25:00
10:37 PM,23.0,19.4,86,29.55,4.0,Calm,Calm,-,0.00,Snow,Light Snow,0,2012-12-30 03:37:00
10:46 PM,23.0,19.4,86,29.55,3.0,Calm,Calm,-,0.00,Snow,Light Snow,0,2012-12-30 03:46:00
10:53 PM,23.0,19.0,85,29.59,3.0,Calm,Calm,-,0.01,Snow,Light Snow,0,2012-12-30 03:53:00
11:07 PM,23.0,19.4,86,29.54,2.5,Calm,Calm,-,0.00,Snow,Light Snow,0,2012-12-30 04:07:00
11:19 PM,24.8,19.4,80,29.54,1.8,Calm,Calm,-,0.00,Snow,Light Snow,0,2012-12-30 04:19:00
11:53 PM,23.0,19.9,88,29.57,1.8,Calm,Calm,-,0.01,Snow,Light Snow,0,2012-12-30 04:53:00